This is the latest recevied weather packets stored in our database for station/object KD8OZS. If no packets are shown the sender has not sent any weather packets the latest 10 day(s).
| Time | Temp. | Humidity | Pressure | Rain* | Wind** | Luminosity | Snow |
|---|---|---|---|---|---|---|---|
| 1777971231 | 17.22° C | 70% | 998 hPa | 0 mm | - | 0 W/m² | - |
| 1777970929 | 17.22° C | 71% | 998.1 hPa | 0 mm | - | 0 W/m² | - |
| 1777970627 | 17.22° C | 70% | 998 hPa | 0 mm | - | 0 W/m² | - |
| 1777970324 | 17.22° C | 71% | 997.8 hPa | 0 mm | - | 0 W/m² | - |
| 1777970022 | 17.78° C | 71% | 997.9 hPa | 0 mm | - | 0 W/m² | - |
| 1777969718 | 17.22° C | 72% | 997.5 hPa | 0 mm | - | 0 W/m² | - |
| 1777969414 | 17.22° C | 72% | 997.7 hPa | 0 mm | - | 0 W/m² | - |
| 1777969111 | 17.22° C | 74% | 997.7 hPa | 0 mm | - | 0 W/m² | - |
| 1777968808 | 17.22° C | 74% | 997.5 hPa | 0 mm | - | 0 W/m² | - |
| 1777968505 | 17.78° C | 73% | 997.9 hPa | 0 mm | - | 0 W/m² | - |
| 1777968200 | 17.78° C | 71% | 997.8 hPa | 1.27 mm | - | 0 W/m² | - |
| 1777967896 | 18.33° C | 68% | 997.6 hPa | 1.27 mm | - | 0 W/m² | - |
| 1777967593 | 17.78° C | 70% | 997.5 hPa | 0 mm | - | 0 W/m² | - |
| 1777967290 | 17.78° C | 73% | 997.5 hPa | 0 mm | - | 0 W/m² | - |
| 1777966987 | 17.78° C | 72% | 997.5 hPa | 0 mm | - | 0 W/m² | - |
| 1777966685 | 18.33° C | 70% | 997.1 hPa | 0 mm | - | 0 W/m² | - |
| 1777966383 | 18.33° C | 67% | 997.3 hPa | 0 mm | - | 0 W/m² | - |
| 1777966080 | 18.33° C | 68% | 997.1 hPa | 0 mm | - | 0 W/m² | - |
| 1777965775 | 18.33° C | 69% | 997.3 hPa | 0 mm | - | 0 W/m² | - |
| 1777965471 | 18.33° C | 69% | 997 hPa | 0 mm | - | 0 W/m² | - |
| 1777965168 | 18.33° C | 68% | 997 hPa | 0 mm | - | 0 W/m² | - |
| 1777964866 | 18.33° C | 66% | 997 hPa | 0 mm | - | 0 W/m² | - |
| 1777964562 | 18.33° C | 67% | 996.8 hPa | 0 mm | - | 0 W/m² | - |
| 1777964258 | 18.33° C | 66% | 997.1 hPa | 0 mm | - | 0 W/m² | - |
| 1777963955 | 18.33° C | 66% | 997 hPa | 0 mm | - | 0 W/m² | - |
* Rain latest hour (hover to see other rain measurements)
** Current wind speed in m/s (hover to see current wind gust speed)